SCP
0 0 0 0 0 0 0 -0 -0 -0 -0 -0 -0 -0 -0 -0 -0 -0 -0 -0 -0 -0 -0 -0 -0 -0 -0 -0 -0 -0 -0 -0 -0 0 -0 -0 -0 -0 -0 -0 -0 -0 -0
0 0 0 0 0 0 -0 -0 -0 -0 -0 -0 -0 -0 -0 -0 -0 0 -0 -0 -0 -0 -0 0 -0 -0 -0 -0 -0 -0 -0 -0 -0 0 0 -0 -0 -0 -0 -0 -0 0 -0
0 0 0 0 0 -0 0 -0 -0 -0 -0 -0 -0 -0 -0 -0 -0 0 -0 -0 -0 -0 -0 0 0 0 0 0 0 -0 -0 -0 -0 -0 -0 -0 0 -0 -0 -0 -0 -0 -0
0 0 0 0 -0 -0 0 0 -0 -0 -0 -0 -0 -0 -0 -0 -0 -0 -0 -0 -0 -0 0 0 0 0 0 0 0 -0 0 -0 -0 -0 -0 -0 -0 -0 -0 -0 -0 -0 -0
0 0 0 -0 -0 -0 -0 -0 -0 -0 -0 -0 -0 -0 0 0 0 0 0 0 0 -0 -0 0 0 0 0 0 0 -0 0 -0 -0 -0 -0 -0 -0 -0 -0 -0 -0 -0 -0
-0 -0 -0 -0 -0 -0 -0 -0 -0 -0 -0 -0 -0 -0 0 0 0 0 0 0 0 0 0 0 0 0 0 0 0 0 0 0 0 0 -0 0 -0 -0 -0 -0 -0 -0 -0
-0 -0 -0 0 -0 0 -0 -0 -0 -0 -0 -0 -0 -0 0 0 0 0 0 0 0 0 0 0 0 0 0 0 0 0 0 0 0 0 0 0 0 -0 0 -0 -0 -0 -0
-0 0 0 -0 -0 -0 -0 -0 -0 -0 -0 -0 -0 -0 -0 0 0 0 0 -0 -0 0 0 0 0 0 0 0 0 0 0 0 -0 0 0 0 0 0 0 0 0 0 0
-0 0 0 0 0 -0 -0 -0 -0 -0 -0 -0 -0 -0 -0 0 0 -0 0 0 0 0 0 0 0 0 0 0 0 0 0 0 0 -0 0 0 0 0 0 0 0 0 0
-0 0 0 0 0 0 0 -0 -0 -0 -0 -0 -0 -0 -0 -0 -0 -0 -0 -0 -0 -0 0 0 0 0 0 0 0 0 0 0 0 0 0 0 0 0 0 0 0 0 0
0 0 0 0 0 0 0 0 -0 -0 -0 -0 -0 -0 0 0 0 0 -0 -0 -0 -0 -0 -0 0 0 0 0 0 0 0 0 0 0 0 0 0 0 0 0 0 0 0
-0 -0 0 0 0 0 0 0 0 0 0 0 0 0 0 0 0 0 0 -0 -0 -0 -0 -0 -0 0 0 0 0 0 0 0 0 0 0 0 0 0 0 0 0 0 0
0 -0 -0 0 0 0 0 0 0 0 0 0 0 0 0 0 0 0 0 0 0 0 0 0 0 0 0 0 0 0 0 0 0 0 0 0 0 0 0 0 0 0 0
0 0 0 0 0 0 0 0 0 0 0 0 0 0 0 0 0 0 0 0 0 0 0 0 0 0 0 0 0 0 0 0 0 0 0 0 0 0 0 0 0 0 0
0 0 0 0 0 0 0 0 0 0 0 0 0 0 0 0 0 0 0 0 0 0 0 0 0 0 0 0 0 0 0 0 0 0 0 0 0 0 0 0 0 0 0
0 0 0 0 0 0 0 0 -0 -0 -0 0 0 0 0 0 0 0 0 0 0 0 0 0 0 0 0 0 0 0 0 0 0 0 0 0 0 0 0 0 0 0 0
0 0 0 0 0 0 0 0 0 -0 0 0 0 0 0 0 0 0 0 0 0 0 0 0 0 0 0 0 0 0 0 0 0 0 0 0 0 0 0 0 0 0 0
0 0 0 0 0 0 0 0 0 -0 -0 -0 0 0 0 0 0 0 0 0 0 0 0 0 0 0 0 0 0 0 0 0 0 0 0 0 0 0 0 0 0 0 0
0 0 0 0 0 0 0 0 -0 -0 -0 -0 -0 -0 -0 -0 -0 -0 -0 -0 0 0 0 0 -0 0 0 0 0 0 0 0 0 0 0 0 0 0 0 0 0 0 0
0 0 0 0 0 0 0 0 -0 -0 -0 -0 0 0 0 -0 -0 -0 -0 -0 -0 -0 0 0 -0 -0 0 0 0 0 0 0 0 0 0 0 0 0 0 0 0 0 0
0 0 0 0 0 0 0 0 0 0 -0 -0 0 0 0 0 0 0 0 -0 -0 -0 -0 -0 -0 -0 -0 0 0 0 0 0 0 0 0 0 0 0 0 0 0 0 0
0 0 0 0 0 0 0 0 0 0 0 0 0 0 0 0 0 0 0 0 0 -0 -0 -0 -0 -0 -0 -0 0 0 0 0 0 0 0 0 0 0 0 0 0 0 0
0 0 0 0 0 0 0 0 0 0 0 0 0 0 0 0 0 0 0 0 0 0 -0 -0 -0 -0 -0 -0 -0 -0 0 0 0 0 0 0 0 0 0 0 0 0 0
0 0 0 0 0 0 0 0 0 0 0 0 0 0 0 0 0 0 0 0 0 0 0 0 0 -0 -0 0 0 0 0 0 0 0 -0 0 0 0 0 0 0 0 0
0 0 0 0 0 0 0 0 0 0 0 0 0 0 0 0 0 0 0 0 0 0 0 0 0 0 0 0 0 0 0 0 0 0 0 0 0 0 0 0 0 0 0
0 0 0 0 0 0 0 0 0 0 0 0 0 0 0 0 0 0 0 0 0 0 0 0 0 0 0 0 0 0 0 0 0 0 0 0 0 0 0 0 0 0 0
Wind_Speed_500mb
24 20 18 18 18 19 20 25 27 27 28 31 30 29 29 30 31 33 32 31 32 32 32 29 28 31 34 36 36 39 39 37 34 34 31 28 23 21 20 20 23 25 25
19 17 17 20 19 17 18 18 21 25 24 26 27 26 26 25 25 28 30 33 29 30 29 27 27 30 31 34 35 31 29 28 31 33 32 28 24 20 17 15 14 14 12
19 17 16 20 19 19 20 21 20 22 24 23 22 22 22 22 22 25 27 31 31 30 28 26 22 24 25 27 25 24 23 23 27 30 34 32 25 20 18 12 11 9 9
20 20 19 19 19 20 21 22 21 22 23 22 21 19 19 18 19 21 24 27 30 30 27 26 22 18 20 20 19 20 17 17 22 28 32 33 25 20 18 14 12 11 10
21 24 25 23 24 23 22 22 22 21 19 19 19 19 20 20 20 20 20 20 21 23 24 23 22 18 17 14 13 17 17 14 21 22 28 33 29 20 18 13 11 9 9
17 27 29 26 28 27 28 25 23 21 18 18 18 19 20 20 20 20 18 16 16 15 15 16 18 17 13 10 7 13 16 16 13 16 22 27 26 22 17 15 11 8 7
10 17 21 23 23 23 22 22 22 20 18 16 16 18 18 17 13 16 18 16 14 10 8 8 9 11 11 12 4 5 10 12 7 10 17 20 24 23 17 14 14 12 9
4 9 11 13 14 15 12 15 21 21 18 14 12 12 11 9 10 11 13 14 15 13 10 7 5 3 5 8 10 2 3 5 10 14 18 14 17 21 19 15 14 12 10
4 3 7 4 6 9 10 16 19 18 16 13 10 12 14 13 10 15 19 11 15 15 13 10 7 6 5 6 9 12 10 3 5 9 17 6 11 16 16 15 14 14 13
10 5 5 4 2 9 14 20 22 19 17 11 10 9 11 12 9 14 19 19 16 14 15 14 12 12 10 10 11 14 20 12 11 10 10 7 11 13 15 16 14 15 15
11 9 6 6 6 10 15 21 26 22 15 9 4 5 7 7 13 16 20 20 20 19 16 15 15 16 13 13 16 16 19 19 12 12 11 12 11 13 15 15 15 14 15
13 6 3 2 5 12 17 22 22 22 19 11 7 5 6 8 9 11 17 18 19 19 19 18 18 17 18 18 17 19 18 22 20 15 14 10 7 18 13 12 12 13 15
13 6 4 2 8 12 15 22 22 23 24 19 16 11 10 10 12 16 19 20 21 20 19 19 19 20 21 22 24 28 29 25 30 22 16 14 10 18 18 10 12 13 15
11 14 14 13 10 13 21 24 27 26 26 25 24 22 20 20 19 20 22 23 24 24 25 23 21 23 23 24 28 27 28 26 26 24 24 26 21 16 15 18 14 15 16
14 16 16 17 18 19 24 28 30 32 29 29 28 27 28 28 28 28 28 29 31 29 29 29 27 26 25 25 30 35 32 31 29 29 28 23 23 19 21 18 23 23 22
15 17 18 20 23 24 30 35 37 34 33 29 29 32 32 32 32 34 34 33 34 36 34 33 32 32 30 28 28 29 31 29 32 31 31 28 27 29 27 18 18 24 23
8 14 17 18 18 19 28 34 36 37 33 33 33 34 36 37 40 40 40 42 44 42 40 37 34 32 32 28 26 24 18 11 11 19 21 27 30 32 33 31 30 29 32
6 16 18 13 10 14 24 28 33 39 40 43 45 47 48 48 49 49 51 52 50 46 46 47 46 43 43 30 29 33 26 20 17 16 12 3 6 13 21 27 33 33 31
13 16 14 11 13 15 17 20 27 33 38 39 44 47 48 47 49 49 53 53 51 51 53 53 53 50 48 34 25 32 32 34 31 24 18 13 14 11 12 18 27 33 38
14 14 12 10 11 12 13 13 21 27 33 35 35 39 43 47 49 49 51 53 52 54 52 54 54 53 51 47 8 15 28 23 24 24 22 18 15 11 12 13 15 17 24
15 11 10 11 13 13 4 7 13 18 26 31 32 33 36 41 43 47 53 55 54 57 56 55 55 58 55 51 34 6 8 10 18 14 16 22 26 21 18 18 17 11 11
14 13 8 11 9 7 7 10 8 13 23 25 27 30 27 29 33 36 42 42 45 46 51 57 60 58 56 53 51 35 23 12 17 17 30 23 34 30 20 19 17 9 9
20 17 11 11 12 6 7 7 5 11 16 18 16 19 24 20 21 24 28 33 37 37 37 38 40 47 51 50 45 34 19 19 57 34 42 40 39 33 26 18 13 7 11
24 21 16 15 16 14 10 4 7 7 10 14 18 23 26 24 29 34 29 31 33 35 38 39 34 38 40 40 40 37 33 35 41 37 52 50 42 35 29 24 13 4 4
32 24 19 19 20 15 10 6 5 3 8 15 17 21 28 27 31 35 34 34 38 39 38 39 40 38 40 38 33 33 37 40 42 49 65 64 57 43 36 31 20 12 16
35 29 24 20 19 15 11 9 10 13 16 15 18 26 28 29 30 31 35 41 46 48 48 46 39 36 32 30 30 33 32 31 38 50 60 63 62 59 50 43 36 24 22
Wind_Direction_500mb
12 23 28 45 51 58 59 59 61 65 72 72 70 71 72 74 72 65 59 57 56 61 66 68 74 85 88 84 82 79 74 75 71 66 61 54 54 63 70 74 81 83 84
13 23 31 42 53 54 62 62 59 62 72 77 77 73 71 73 71 60 57 52 56 58 66 71 81 91 92 87 81 74 65 63 64 56 56 52 46 50 59 67 77 87 90
27 36 41 48 50 54 62 63 67 68 72 72 77 76 76 70 62 55 53 51 55 59 69 70 78 95 95 87 76 64 50 48 48 52 51 44 46 36 34 52 63 68 72
34 44 50 53 53 52 58 63 69 71 75 77 80 81 78 77 71 63 56 52 51 54 68 72 73 97 102 87 72 54 40 49 58 52 43 42 41 37 22 36 49 54 60
30 48 53 50 51 54 57 58 60 65 71 73 76 75 74 73 72 65 59 56 58 61 69 70 66 92 113 94 62 45 48 43 61 58 48 40 35 36 22 17 16 24 46
40 53 51 52 49 44 46 46 49 52 54 54 58 66 71 74 73 67 61 56 52 52 60 76 83 95 117 113 70 52 47 72 60 45 39 32 33 31 21 10 7 5 9
18 54 59 54 52 45 38 47 48 47 48 49 55 64 65 57 64 48 39 37 39 40 45 54 67 90 112 138 116 62 60 60 59 25 11 20 18 20 15 5 358 358 357
33 58 61 55 62 65 51 43 37 34 35 38 42 50 55 46 36 31 28 30 25 11 3 2 1 52 123 157 185 242 122 81 24 350 349 339 2 14 11 0 348 342 342
41 47 57 41 29 44 26 32 28 26 24 26 20 14 20 1 345 10 6 21 13 359 348 345 324 287 239 208 208 208 236 229 354 318 318 301 349 360 7 2 349 336 328
34 32 63 107 357 11 13 14 8 5 6 353 356 349 353 4 12 353 327 349 347 337 332 330 328 320 303 259 228 205 211 238 269 294 339 308 334 348 359 358 349 338 327
26 63 82 58 28 5 355 355 351 357 6 358 346 358 322 324 316 318 323 338 335 324 326 319 314 306 308 282 238 231 237 240 269 278 302 304 302 328 337 356 350 336 324
10 42 147 40 359 337 342 351 2 17 28 23 32 12 345 331 329 324 320 322 327 324 314 303 302 294 289 285 261 253 259 258 265 273 277 272 311 303 302 332 337 339 328
9 56 125 305 338 338 11 26 35 39 43 43 44 31 6 339 328 327 327 323 315 322 317 306 298 293 295 291 282 266 264 265 264 269 267 253 265 272 276 309 320 326 325
55 76 74 71 56 31 36 40 43 45 42 40 40 41 34 27 19 13 11 5 360 355 348 334 319 308 300 297 294 290 281 274 263 271 265 264 263 265 265 276 284 297 307
67 81 78 75 64 53 48 47 47 49 44 40 37 36 33 28 28 27 24 18 18 16 10 3 357 347 330 312 296 291 289 279 276 272 267 256 245 259 266 272 279 279 272
69 79 87 89 80 72 62 53 48 46 46 43 41 37 34 32 30 29 28 27 26 21 13 6 359 356 351 342 324 314 301 292 274 270 264 262 253 247 240 250 275 267 265
90 102 111 104 87 69 62 54 54 49 47 50 51 47 45 43 39 39 39 39 36 30 24 22 21 13 7 4 352 348 349 337 282 269 276 267 266 269 263 258 251 254 267
118 134 125 110 93 76 60 59 55 51 53 56 58 56 54 51 49 46 42 41 37 31 29 23 22 22 25 34 49 65 60 65 75 66 62 37 298 277 273 271 266 255 260
131 130 133 113 91 80 68 63 59 53 52 56 56 53 50 46 43 40 38 34 30 27 27 26 22 20 22 40 69 79 76 76 76 76 69 51 38 15 308 279 271 270 268
134 140 143 120 107 98 86 74 61 54 47 47 48 47 42 38 33 30 28 24 21 19 17 15 16 17 13 22 87 103 79 74 62 58 57 57 45 15 341 321 297 273 274
152 133 154 152 130 140 130 112 72 57 46 41 40 35 30 26 23 20 16 13 10 9 10 7 7 11 10 7 16 55 256 252 14 14 10 12 12 8 355 325 308 309 321
181 154 157 175 143 149 119 136 94 48 33 33 37 25 17 14 14 13 10 9 4 6 4 4 3 4 9 10 9 4 353 285 286 332 340 334 352 355 350 356 356 341 346
203 185 168 164 167 159 124 142 55 21 25 53 28 5 358 355 360 354 344 341 342 345 349 353 356 357 357 1 5 10 350 338 334 322 325 333 338 343 349 356 0 334 318
202 202 184 157 131 117 143 164 94 74 52 20 360 347 340 334 336 336 334 331 334 336 335 337 335 337 333 336 340 343 340 332 332 320 327 330 332 334 337 345 352 345 314
208 198 185 171 151 129 123 130 110 33 338 333 329 320 318 318 321 324 327 327 324 328 328 326 326 326 320 315 312 313 313 317 315 314 315 321 322 326 329 331 332 304 273
206 201 198 194 177 171 188 208 248 268 277 287 300 313 317 317 319 320 319 319 320 321 322 323 323 319 326 321 315 310 315 320 310 306 306 310 310 315 315 317 317 317 296
Wind_Speed_850mb
24 20 18 18 18 19 20 25 27 27 28 31 30 29 29 30 31 33 32 31 32 32 32 29 28 31 34 36 36 39 39 37 34 34 31 28 23 21 20 20 23 25 25
19 17 17 20 19 17 18 18 21 25 24 26 27 26 26 25 25 28 30 33 29 30 29 27 27 30 31 34 35 31 29 28 31 33 32 28 24 20 17 15 14 14 12
19 17 16 20 19 19 20 21 20 22 24 23 22 22 22 22 22 25 27 31 31 30 28 26 22 24 25 27 25 24 23 23 27 30 34 32 25 20 18 12 11 9 9
20 20 19 19 19 20 21 22 21 22 23 22 21 19 19 18 19 21 24 27 30 30 27 26 22 18 20 20 19 20 17 17 22 28 32 33 25 20 18 14 12 11 10
21 24 25 23 24 23 22 22 22 21 19 19 19 19 20 20 20 20 20 20 21 23 24 23 22 18 17 14 13 17 17 14 21 22 28 33 29 20 18 13 11 9 9
17 27 29 26 28 27 28 25 23 21 18 18 18 19 20 20 20 20 18 16 16 15 15 16 18 17 13 10 7 13 16 16 13 16 22 27 26 22 17 15 11 8 7
10 17 21 23 23 23 22 22 22 20 18 16 16 18 18 17 13 16 18 16 14 10 8 8 9 11 11 12 4 5 10 12 7 10 17 20 24 23 17 14 14 12 9
4 9 11 13 14 15 12 15 21 21 18 14 12 12 11 9 10 11 13 14 15 13 10 7 5 3 5 8 10 2 3 5 10 14 18 14 17 21 19 15 14 12 10
4 3 7 4 6 9 10 16 19 18 16 13 10 12 14 13 10 15 19 11 15 15 13 10 7 6 5 6 9 12 10 3 5 9 17 6 11 16 16 15 14 14 13
10 5 5 4 2 9 14 20 22 19 17 11 10 9 11 12 9 14 19 19 16 14 15 14 12 12 10 10 11 14 20 12 11 10 10 7 11 13 15 16 14 15 15
11 9 6 6 6 10 15 21 26 22 15 9 4 5 7 7 13 16 20 20 20 19 16 15 15 16 13 13 16 16 19 19 12 12 11 12 11 13 15 15 15 14 15
13 6 3 2 5 12 17 22 22 22 19 11 7 5 6 8 9 11 17 18 19 19 19 18 18 17 18 18 17 19 18 22 20 15 14 10 7 18 13 12 12 13 15
13 6 4 2 8 12 15 22 22 23 24 19 16 11 10 10 12 16 19 20 21 20 19 19 19 20 21 22 24 28 29 25 30 22 16 14 10 18 18 10 12 13 15
11 14 14 13 10 13 21 24 27 26 26 25 24 22 20 20 19 20 22 23 24 24 25 23 21 23 23 24 28 27 28 26 26 24 24 26 21 16 15 18 14 15 16
14 16 16 17 18 19 24 28 30 32 29 29 28 27 28 28 28 28 28 29 31 29 29 29 27 26 25 25 30 35 32 31 29 29 28 23 23 19 21 18 23 23 22
15 17 18 20 23 24 30 35 37 34 33 29 29 32 32 32 32 34 34 33 34 36 34 33 32 32 30 28 28 29 31 29 32 31 31 28 27 29 27 18 18 24 23
8 14 17 18 18 19 28 34 36 37 33 33 33 34 36 37 40 40 40 42 44 42 40 37 34 32 32 28 26 24 18 11 11 19 21 27 30 32 33 31 30 29 32
6 16 18 13 10 14 24 28 33 39 40 43 45 47 48 48 49 49 51 52 50 46 46 47 46 43 43 30 29 33 26 20 17 16 12 3 6 13 21 27 33 33 31
13 16 14 11 13 15 17 20 27 33 38 39 44 47 48 47 49 49 53 53 51 51 53 53 53 50 48 34 25 32 32 34 31 24 18 13 14 11 12 18 27 33 38
14 14 12 10 11 12 13 13 21 27 33 35 35 39 43 47 49 49 51 53 52 54 52 54 54 53 51 47 8 15 28 23 24 24 22 18 15 11 12 13 15 17 24
15 11 10 11 13 13 4 7 13 18 26 31 32 33 36 41 43 47 53 55 54 57 56 55 55 58 55 51 34 6 8 10 18 14 16 22 26 21 18 18 17 11 11
14 13 8 11 9 7 7 10 8 13 23 25 27 30 27 29 33 36 42 42 45 46 51 57 60 58 56 53 51 35 23 12 17 17 30 23 34 30 20 19 17 9 9
20 17 11 11 12 6 7 7 5 11 16 18 16 19 24 20 21 24 28 33 37 37 37 38 40 47 51 50 45 34 19 19 57 34 42 40 39 33 26 18 13 7 11
24 21 16 15 16 14 10 4 7 7 10 14 18 23 26 24 29 34 29 31 33 35 38 39 34 38 40 40 40 37 33 35 41 37 52 50 42 35 29 24 13 4 4
32 24 19 19 20 15 10 6 5 3 8 15 17 21 28 27 31 35 34 34 38 39 38 39 40 38 40 38 33 33 37 40 42 49 65 64 57 43 36 31 20 12 16
35 29 24 20 19 15 11 9 10 13 16 15 18 26 28 29 30 31 35 41 46 48 48 46 39 36 32 30 30 33 32 31 38 50 60 63 62 59 50 43 36 24 22
Wind_Direction_850mb
12 23 28 45 51 58 59 59 61 65 72 72 70 71 72 74 72 65 59 57 56 61 66 68 74 85 88 84 82 79 74 75 71 66 61 54 54 63 70 74 81 83 84
13 23 31 42 53 54 62 62 59 62 72 77 77 73 71 73 71 60 57 52 56 58 66 71 81 91 92 87 81 74 65 63 64 56 56 52 46 50 59 67 77 87 90
27 36 41 48 50 54 62 63 67 68 72 72 77 76 76 70 62 55 53 51 55 59 69 70 78 95 95 87 76 64 50 48 48 52 51 44 46 36 34 52 63 68 72
34 44 50 53 53 52 58 63 69 71 75 77 80 81 78 77 71 63 56 52 51 54 68 72 73 97 102 87 72 54 40 49 58 52 43 42 41 37 22 36 49 54 60
30 48 53 50 51 54 57 58 60 65 71 73 76 75 74 73 72 65 59 56 58 61 69 70 66 92 113 94 62 45 48 43 61 58 48 40 35 36 22 17 16 24 46
40 53 51 52 49 44 46 46 49 52 54 54 58 66 71 74 73 67 61 56 52 52 60 76 83 95 117 113 70 52 47 72 60 45 39 32 33 31 21 10 7 5 9
18 54 59 54 52 45 38 47 48 47 48 49 55 64 65 57 64 48 39 37 39 40 45 54 67 90 112 138 116 62 60 60 59 25 11 20 18 20 15 5 358 358 357
33 58 61 55 62 65 51 43 37 34 35 38 42 50 55 46 36 31 28 30 25 11 3 2 1 52 123 157 185 242 122 81 24 350 349 339 2 14 11 0 348 342 342
41 47 57 41 29 44 26 32 28 26 24 26 20 14 20 1 345 10 6 21 13 359 348 345 324 287 239 208 208 208 236 229 354 318 318 301 349 360 7 2 349 336 328
34 32 63 107 357 11 13 14 8 5 6 353 356 349 353 4 12 353 327 349 347 337 332 330 328 320 303 259 228 205 211 238 269 294 339 308 334 348 359 358 349 338 327
26 63 82 58 28 5 355 355 351 357 6 358 346 358 322 324 316 318 323 338 335 324 326 319 314 306 308 282 238 231 237 240 269 278 302 304 302 328 337 356 350 336 324
10 42 147 40 359 337 342 351 2 17 28 23 32 12 345 331 329 324 320 322 327 324 314 303 302 294 289 285 261 253 259 258 265 273 277 272 311 303 302 332 337 339 328
9 56 125 305 338 338 11 26 35 39 43 43 44 31 6 339 328 327 327 323 315 322 317 306 298 293 295 291 282 266 264 265 264 269 267 253 265 272 276 309 320 326 325
55 76 74 71 56 31 36 40 43 45 42 40 40 41 34 27 19 13 11 5 360 355 348 334 319 308 300 297 294 290 281 274 263 271 265 264 263 265 265 276 284 297 307
67 81 78 75 64 53 48 47 47 49 44 40 37 36 33 28 28 27 24 18 18 16 10 3 357 347 330 312 296 291 289 279 276 272 267 256 245 259 266 272 279 279 272
69 79 87 89 80 72 62 53 48 46 46 43 41 37 34 32 30 29 28 27 26 21 13 6 359 356 351 342 324 314 301 292 274 270 264 262 253 247 240 250 275 267 265
90 102 111 104 87 69 62 54 54 49 47 50 51 47 45 43 39 39 39 39 36 30 24 22 21 13 7 4 352 348 349 337 282 269 276 267 266 269 263 258 251 254 267
118 134 125 110 93 76 60 59 55 51 53 56 58 56 54 51 49 46 42 41 37 31 29 23 22 22 25 34 49 65 60 65 75 66 62 37 298 277 273 271 266 255 260
131 130 133 113 91 80 68 63 59 53 52 56 56 53 50 46 43 40 38 34 30 27 27 26 22 20 22 40 69 79 76 76 76 76 69 51 38 15 308 279 271 270 268
134 140 143 120 107 98 86 74 61 54 47 47 48 47 42 38 33 30 28 24 21 19 17 15 16 17 13 22 87 103 79 74 62 58 57 57 45 15 341 321 297 273 274
152 133 154 152 130 140 130 112 72 57 46 41 40 35 30 26 23 20 16 13 10 9 10 7 7 11 10 7 16 55 256 252 14 14 10 12 12 8 355 325 308 309 321
181 154 157 175 143 149 119 136 94 48 33 33 37 25 17 14 14 13 10 9 4 6 4 4 3 4 9 10 9 4 353 285 286 332 340 334 352 355 350 356 356 341 346
203 185 168 164 167 159 124 142 55 21 25 53 28 5 358 355 360 354 344 341 342 345 349 353 356 357 357 1 5 10 350 338 334 322 325 333 338 343 349 356 0 334 318
202 202 184 157 131 117 143 164 94 74 52 20 360 347 340 334 336 336 334 331 334 336 335 337 335 337 333 336 340 343 340 332 332 320 327 330 332 334 337 345 352 345 314
208 198 185 171 151 129 123 130 110 33 338 333 329 320 318 318 321 324 327 327 324 328 328 326 326 326 320 315 312 313 313 317 315 314 315 321 322 326 329 331 332 304 273
206 201 198 194 177 171 188 208 248 268 277 287 300 313 317 317 319 320 319 319 320 321 322 323 323 319 326 321 315 310 315 320 310 306 306 310 310 315 315 317 317 317 296